Location: Balaclava NSW 2575, Australia
(34.4510°S, 150.4953°E)
Time: 17:21:25
(UTC+10:00)

N. Korean satellite - Visible Passes

Search period start: 11 August 2020 00:00
Search period end: 21 August 2020 00:00
Orbit: 453 x 506 km, 97.2° (Epoch: 10 August)

Date Brightness Start Highest point End Pass type
(mag) Time Alt. Az. Time Alt. Az. Time Alt. Az.
11 Aug 9.7 03:58:02 10° ENE 03:59:20 15° E 03:59:20 15° E visible
11 Aug 7.6 05:30:24 10° NNW 05:33:32 26° W 05:33:36 26° W visible
11 Aug 9.7 18:34:27 10° SW 18:36:09 13° WSW 18:37:50 10° W visible
12 Aug 6.6 05:03:55 10° N 05:07:35 59° W 05:07:41 59° W visible
12 Aug 8.9 18:07:22 10° SSW 18:10:28 27° WSW 18:13:30 10° NW visible
13 Aug 7.2 04:38:04 10° NNE 04:41:44 57° ESE 04:41:47 57° ESE visible
14 Aug 8.8 04:12:51 10° NE 04:15:54 26° ESE 04:15:54 26° ESE visible
14 Aug 8.3 05:46:53 10° NW 05:49:17 16° W 05:50:10 15° WSW visible
15 Aug 9.9 03:48:40 10° E 03:50:02 12° ESE 03:50:02 12° ESE visible
15 Aug 7.2 05:19:50 10° NNW 05:23:15 35° W 05:24:19 29° WSW visible
15 Aug 9.6 18:23:36 10° SSW 18:25:58 17° WSW 18:28:18 10° WNW visible
16 Aug 6.5 04:53:36 10° N 04:57:20 84° WNW 04:58:28 44° SSW visible
16 Aug 8.3 17:56:55 10° S 18:00:15 36° WSW 18:03:29 10° NW visible
17 Aug 7.9 04:27:59 10° NE 04:31:30 41° ESE 04:32:41 31° SSE visible
18 Aug 9.3 04:03:03 10° ENE 04:05:46 19° ESE 04:06:55 17° SE visible
18 Aug 7.9 05:36:01 10° NNW 05:38:56 22° W 05:41:12 13° SW visible
18 Aug 10.0 18:40:41 10° SW 18:41:24 10° WSW 18:42:07 10° W visible
19 Aug 6.8 05:09:20 10° N 05:12:57 48° W 05:15:30 18° SSW visible
19 Aug 9.2 18:12:54 10° SSW 18:15:43 22° WSW 18:18:29 10° NW visible
20 Aug 6.9 04:43:20 10° NNE 04:47:03 70° ESE 04:49:55 17° S visible
